Sigfox identifier Datetime Temperature Humidity SNR
002EECB1 2019-04-23 14:47:05 16.3 36 25.3
002EECB1 2019-04-23 14:13:09 16.3 35 25.4
002EECB1 2019-04-23 13:39:15 16.1 35 25.6
002EECB1 2019-04-23 13:05:20 16.1 35 25.3
002EECB1 2019-04-23 12:31:26 15.9 35 25.4
002EECB1 2019-04-23 11:57:32 15.9 35 25.5
002EECB1 2019-04-23 11:23:37 15.7 35 25.6
002EECB1 2019-04-23 10:49:42 15.7 35 25.7
002EECB1 2019-04-23 10:15:46 15.7 35 25.7
002EECB1 2019-04-23 09:41:50 15.7 35 25.8
002EECB1 2019-04-23 09:07:54 15.7 35 25.8
002EECB1 2019-04-23 08:33:58 15.5 35 25.9
002EECB1 2019-04-23 08:00:01 15.5 35 25.8
002EECB1 2019-04-23 07:26:05 15.5 35 25.9
002EECB1 2019-04-23 06:52:08 15.5 35 25.8
002EECB1 2019-04-23 06:18:12 15.5 35 25.8
002EECB1 2019-04-23 05:44:15 15.5 35 25.8
002EECB1 2019-04-23 05:10:19 15.5 35 25.9
002EECB1 2019-04-23 04:36:22 15.5 35 25.9
002EECB1 2019-04-23 04:02:27 15.5 35 25.8
002EECB1 2019-04-23 03:28:30 15.5 35 25.9
002EECB1 2019-04-23 02:54:34 15.5 35 25.8
002EECB1 2019-04-23 02:20:38 15.5 35 25.8
002EECB1 2019-04-23 01:46:41 15.5 35 25.8
002EECB1 2019-04-23 01:12:45 15.5 35 25.9
002EECB1 2019-04-23 00:38:49 15.5 35 25.8
002EECB1 2019-04-23 00:04:53 15.6 35 25.8
002EECB1 2019-04-22 23:30:58 15.6 35 26
002EECB1 2019-04-22 22:57:00 15.6 35 26
002EECB1 2019-04-22 22:23:04 15.7 35 26.1
002EECB1 2019-04-22 21:49:09 15.7 35 26
002EECB1 2019-04-22 21:15:13 15.7 35 25.9
002EECB1 2019-04-22 20:41:17 15.7 35 25.9
002EECB1 2019-04-22 20:07:20 15.8 35 25.8
002EECB1 2019-04-22 19:33:25 15.9 35 25.8
002EECB1 2019-04-22 18:59:29 15.9 35 25.8
002EECB1 2019-04-22 18:25:32 15.9 35 25.9
002EECB1 2019-04-22 17:51:37 15.9 35 25.9
002EECB1 2019-04-22 17:17:41 15.9 35 25.9
002EECB1 2019-04-22 16:43:44 15.9 35 25.9
002EECB1 2019-04-22 16:09:50 15.9 35 26
002EECB1 2019-04-22 15:35:54 15.9 35 25.8
002EECB1 2019-04-22 15:01:59 15.7 35 25.8
002EECB1 2019-04-22 14:28:03 15.7 35 25.9
002EECB1 2019-04-22 13:54:08 15.7 35 25.9
002EECB1 2019-04-22 13:20:13 15.7 35 25.8
002EECB1 2019-04-22 12:46:17 15.7 35 25.9
002EECB1 2019-04-22 12:12:22 15.7 35 25.9
002EECB1 2019-04-22 11:38:27 15.7 34 25.8
002EECB1 2019-04-22 11:04:34 15.7 35 25.8
002EECB1 2019-04-22 10:30:38 15.7 35 25.8
002EECB1 2019-04-22 09:56:43 15.5 34 25.9
002EECB1 2019-04-22 09:22:48 15.5 34 25.9
002EECB1 2019-04-22 08:48:53 15.5 34 26
002EECB1 2019-04-22 08:14:59 15.5 34 26.1
002EECB1 2019-04-22 07:41:06 15.5 34 26
002EECB1 2019-04-22 07:07:11 15.5 34 25.9
002EECB1 2019-04-22 06:33:16 15.6 34 26
002EECB1 2019-04-22 05:59:20 15.7 34 26.1
002EECB1 2019-04-22 05:25:30 15.7 34 26.2
002EECB1 2019-04-22 04:51:32 15.5 34 26.2
002EECB1 2019-04-22 04:17:36 15.5 34 26.2
002EECB1 2019-04-22 03:43:41 15.5 34 26.1
002EECB1 2019-04-22 03:09:46 15.5 34 26.1
002EECB1 2019-04-22 02:35:51 15.5 34 26.1
002EECB1 2019-04-22 02:01:55 15.5 34 26.1
002EECB1 2019-04-22 01:28:00 15.5 34 26.2
002EECB1 2019-04-22 00:54:04 15.5 34 26.2
002EECB1 2019-04-22 00:20:09 15.5 34 26.2
002EECB1 2019-04-21 23:46:14 15.5 34 26.3
002EECB1 2019-04-21 23:12:18 15.4 34 26.3
002EECB1 2019-04-21 22:38:24 15.5 34 26.2
002EECB1 2019-04-21 22:04:29 15.5 34 26.4
002EECB1 2019-04-21 21:30:32 15.5 34 26.3
002EECB1 2019-04-21 20:56:37 15.5 34 26.2
002EECB1 2019-04-21 20:22:40 15.4 34 26.2
002EECB1 2019-04-21 19:48:44 15.5 34 26.2
002EECB1 2019-04-21 19:14:48 15.5 34 26.2
002EECB1 2019-04-21 18:40:52 15.5 34 26.1
002EECB1 2019-04-21 18:06:56 15.4 34 26.1
002EECB1 2019-04-21 17:32:59 15.4 34 26.1
002EECB1 2019-04-21 16:59:04 15.3 34 26.1
002EECB1 2019-04-21 16:25:08 15.3 34 26
002EECB1 2019-04-21 15:51:11 15.3 34 26
002EECB1 2019-04-21 15:17:14 15.3 34 25.9
002EECB1 2019-04-21 14:43:18 15.3 34 26.2
002EECB1 2019-04-21 14:09:22 15.3 34 26.3
002EECB1 2019-04-21 13:35:28 15.3 34 26.3
002EECB1 2019-04-21 13:01:31 15.3 34 26.4
002EECB1 2019-04-21 12:27:34 15.3 34 26.4
002EECB1 2019-04-21 11:53:37 15.3 34 26.6
002EECB1 2019-04-21 11:19:42 15.3 34 26.5
002EECB1 2019-04-21 10:45:45 15.3 34 26.5
002EECB1 2019-04-21 10:11:49 15.4 34 26.5
002EECB1 2019-04-21 09:37:54 15.5 34 26.4
002EECB1 2019-04-21 09:03:58 15.5 34 26.4
002EECB1 2019-04-21 08:30:02 15.5 34 26.5
002EECB1 2019-04-21 07:56:06 15.6 34 26.3
002EECB1 2019-04-21 07:22:11 15.5 34 26.4
002EECB1 2019-04-21 06:48:15 15.6 34 26.4
002EECB1 2019-04-21 06:14:19 15.5 34 26.4
002EECB1 2019-04-21 05:40:24 15.5 34 26.4
002EECB1 2019-04-21 05:06:27 15.5 34 26.2
002EECB1 2019-04-21 04:32:30 15.5 34 26.2
002EECB1 2019-04-21 03:58:34 15.5 34 26.1
002EECB1 2019-04-21 03:24:38 15.5 34 26
002EECB1 2019-04-21 02:50:43 15.5 34 26
002EECB1 2019-04-21 02:16:47 15.5 34 26.1
002EECB1 2019-04-21 01:42:52 15.5 34 26.1
002EECB1 2019-04-21 01:08:56 15.5 34 26.1
002EECB1 2019-04-21 00:35:00 15.5 33 25.8
002EECB1 2019-04-21 00:01:04 15.5 34 25.7
002EECB1 2019-04-20 23:27:08 15.3 33 25.7
002EECB1 2019-04-20 22:53:13 15.5 33 25.6
002EECB1 2019-04-20 22:19:18 15.4 33 25.6
002EECB1 2019-04-20 21:45:23 15.5 33 25.3
002EECB1 2019-04-20 21:11:28 15.5 33 25.5
002EECB1 2019-04-20 20:37:32 15.5 33 25.5
002EECB1 2019-04-20 20:03:36 15.5 33 25.5
002EECB1 2019-04-20 19:29:40 15.5 33 25.6
002EECB1 2019-04-20 18:55:43 15.5 33 25.7
002EECB1 2019-04-20 18:21:48 15.5 33 25.7
002EECB1 2019-04-20 17:47:52 15.5 33 25.7
002EECB1 2019-04-20 17:13:55 15.4 33 25.7
002EECB1 2019-04-20 16:39:59 15.5 33 25.8
002EECB1 2019-04-20 16:06:03 15.5 33 25.7
002EECB1 2019-04-20 15:32:07 15.5 33 25.8
002EECB1 2019-04-20 14:58:11 15.5 33 26
002EECB1 2019-04-20 14:24:16 15.3 33 26
002EECB1 2019-04-20 13:50:21 15.3 33 26
002EECB1 2019-04-20 13:16:25 15.4 33 26
002EECB1 2019-04-20 12:42:31 15.4 33 26
002EECB1 2019-04-20 12:08:37 15.5 33 25.9
002EECB1 2019-04-20 11:34:43 15.5 33 25.7
002EECB1 2019-04-20 11:00:48 15.5 33 25.7
002EECB1 2019-04-20 10:26:54 15.5 33 25.9
002EECB1 2019-04-20 09:52:59 15.5 33 25.8
002EECB1 2019-04-20 09:19:05 15.5 33 25.8
002EECB1 2019-04-20 08:45:10 15.5 33 25.8
002EECB1 2019-04-20 08:11:15 15.5 33 25.9
002EECB1 2019-04-20 07:37:20 15.7 33 25.9
002EECB1 2019-04-20 07:03:25 15.7 33 25.8
002EECB1 2019-04-20 06:29:30 15.5 33 25.8
002EECB1 2019-04-20 05:55:37 15.7 33 25.9
002EECB1 2019-04-20 05:21:43 15.7 33 25.8
002EECB1 2019-04-20 04:47:49 15.5 33 25.8
002EECB1 2019-04-20 04:13:55 15.5 33 25.8
002EECB1 2019-04-20 03:40:00 15.6 33 25.8
002EECB1 2019-04-20 03:06:05 15.7 33 25.8
002EECB1 2019-04-20 02:32:11 15.7 33 25.8
002EECB1 2019-04-20 01:58:16 15.7 33 25.9
002EECB1 2019-04-20 01:24:20 15.7 33 25.7
002EECB1 2019-04-20 00:50:27 15.8 33 25.6
002EECB1 2019-04-20 00:16:32 15.9 33 25.9
002EECB1 2019-04-19 23:42:37 15.9 33 25.8
002EECB1 2019-04-19 23:08:42 15.9 33 25.9
002EECB1 2019-04-19 22:34:47 15.9 33 26.1
002EECB1 2019-04-19 22:00:52 15.9 33 26.1
002EECB1 2019-04-19 21:26:57 15.9 32 26.1
002EECB1 2019-04-19 20:53:02 16 33 26.1
002EECB1 2019-04-19 20:19:07 16 32 26.1
002EECB1 2019-04-19 19:45:12 16 32 26
002EECB1 2019-04-19 19:11:18 16.1 32 26
002EECB1 2019-04-19 18:37:24 16.1 32 26
002EECB1 2019-04-19 18:03:30 16.1 32 25.9
002EECB1 2019-04-19 17:29:35 16.2 32 26
002EECB1 2019-04-19 16:55:41 16.1 32 25.8
002EECB1 2019-04-19 16:21:47 16.1 32 25.8
002EECB1 2019-04-19 15:47:55 15.9 32 25.8
002EECB1 2019-04-19 15:14:01 15.9 32 25.7
002EECB1 2019-04-19 14:40:08 15.9 32 25.6
002EECB1 2019-04-19 14:06:15 15.9 32 25.6
002EECB1 2019-04-19 13:32:22 15.9 32 25.6
002EECB1 2019-04-19 12:58:28 15.9 32 25.5
002EECB1 2019-04-19 12:24:35 15.9 32 25.6
002EECB1 2019-04-19 11:50:41 15.7 32 25.6
002EECB1 2019-04-19 11:16:47 15.7 32 25.6
002EECB1 2019-04-19 10:42:54 15.7 32 25.5
002EECB1 2019-04-19 10:09:00 15.7 32 25.5
002EECB1 2019-04-19 09:35:07 15.7 32 25.5
002EECB1 2019-04-19 09:01:14 15.7 32 25.6
002EECB1 2019-04-19 08:27:21 15.7 32 25.5
002EECB1 2019-04-19 07:53:28 15.7 32 25.6
002EECB1 2019-04-19 07:19:34 15.7 32 25.5
002EECB1 2019-04-19 06:45:41 15.7 32 25.5
002EECB1 2019-04-19 06:11:48 15.7 32 25.4
002EECB1 2019-04-19 05:37:54 15.8 32 25.3
002EECB1 2019-04-19 05:04:02 15.9 32 25.1
002EECB1 2019-04-19 04:30:10 15.7 31 25.2
002EECB1 2019-04-19 03:56:16 15.9 32 25.5
002EECB1 2019-04-19 03:22:22 15.9 32 25.4
002EECB1 2019-04-19 02:48:29 15.9 31 25.4
002EECB1 2019-04-19 02:14:35 15.9 31 25.3
002EECB1 2019-04-19 01:40:41 15.9 31 25.3
002EECB1 2019-04-19 01:06:47 16 31 25.5
002EECB1 2019-04-19 00:32:52 16.1 31 25.6
002EECB1 2019-04-18 23:58:56 16.1 31 26
002EECB1 2019-04-18 23:25:02 16.3 31 25.9
002EECB1 2019-04-18 22:51:07 16.3 31 25.9
002EECB1 2019-04-18 22:17:13 16.3 31 25.8
002EECB1 2019-04-18 21:43:19 16.3 31 25.9
002EECB1 2019-04-18 21:09:26 16.3 31 25.9
002EECB1 2019-04-18 20:35:33 16.4 31 25.7
002EECB1 2019-04-18 20:01:38 16.5 31 25.7
002EECB1 2019-04-18 19:27:45 16.5 31 25.6
002EECB1 2019-04-18 18:53:52 16.5 31 25.5
002EECB1 2019-04-18 18:19:58 16.5 31 25.5
002EECB1 2019-04-18 17:46:06 16.5 31 25.5
002EECB1 2019-04-18 17:12:12 16.5 31 25.5
002EECB1 2019-04-18 16:38:18 16.4 31 25.5
002EECB1 2019-04-18 16:04:24 16.4 31 25.6
002EECB1 2019-04-18 15:30:30 16.3 31 25.7
002EECB1 2019-04-18 14:56:37 16.3 31 25.9
002EECB1 2019-04-18 14:22:42 16.1 31 25.9
002EECB1 2019-04-18 13:48:48 16.1 31 25.7
002EECB1 2019-04-18 13:14:54 16.1 31 25.6
002EECB1 2019-04-18 12:41:00 16.1 31 25.7
002EECB1 2019-04-18 12:07:06 16 31 25.8
002EECB1 2019-04-18 11:33:10 16.1 31 25.7
002EECB1 2019-04-18 10:59:15 16.1 31 25.7
002EECB1 2019-04-18 10:25:20 16.1 31 25.5
002EECB1 2019-04-18 09:51:24 15.9 30 25.1
002EECB1 2019-04-18 09:17:29 15.9 30 25.1
002EECB1 2019-04-18 08:43:33 15.9 30 25
002EECB1 2019-04-18 08:09:38 16.1 30 25.1
002EECB1 2019-04-18 07:35:41 16.1 30 25.1
002EECB1 2019-04-18 07:01:44 16 30 25.3
002EECB1 2019-04-18 06:27:48 15.9 30 25.2
002EECB1 2019-04-18 05:53:53 15.9 30 25.2
002EECB1 2019-04-18 05:19:56 15.9 30 25.3
002EECB1 2019-04-18 04:45:59 15.9 30 25.5
002EECB1 2019-04-18 04:12:01 15.9 30 25.5
002EECB1 2019-04-18 03:38:04 15.9 30 25.5
002EECB1 2019-04-18 03:04:07 15.9 30 25.5
002EECB1 2019-04-18 02:30:10 15.9 30 25.5
002EECB1 2019-04-18 01:56:14 16.1 30 25.4
002EECB1 2019-04-18 01:22:18 16.1 30 25.3
002EECB1 2019-04-18 00:48:23 16.3 30 25.2
002EECB1 2019-04-18 00:14:27 16.3 30 25.5
002EECB1 2019-04-17 23:40:32 16.5 30 25.4
002EECB1 2019-04-17 23:06:36 16.6 30 25.5
002EECB1 2019-04-17 22:32:42 16.5 30 25.5
002EECB1 2019-04-17 21:58:45 16.5 30 25.3
002EECB1 2019-04-17 21:24:49 16.5 29 25.3
002EECB1 2019-04-17 20:50:53 16.4 29 25.2
002EECB1 2019-04-17 20:16:57 16.4 29 25.1
002EECB1 2019-04-17 19:43:02 16.3 29 25.1
002EECB1 2019-04-17 19:09:07 16.3 29 25.1
002EECB1 2019-04-17 18:35:13 16.3 29 25.1
002EECB1 2019-04-17 18:01:17 16.3 29 25.1
002EECB1 2019-04-17 17:27:22 16.3 29 25.1
002EECB1 2019-04-17 16:53:25 16.3 29 25.1
002EECB1 2019-04-17 16:19:29 16.3 29 25
002EECB1 2019-04-17 15:45:33 16.4 29 24.9
002EECB1 2019-04-17 15:11:37 16.3 28 24.7
002EECB1 2019-04-17 14:37:41 16.3 28 24.7
002EECB1 2019-04-17 14:03:46 16.3 28 24.7
002EECB1 2019-04-17 12:55:55 16.7 28 24.7
002EECB1 2019-04-17 12:22:00 16.5 28 24.6
002EECB1 2019-04-17 11:48:04 16.5 28 24.5
002EECB1 2019-04-17 11:14:08 16.5 28 25
002EECB1 2019-04-17 10:40:12 16.3 28 24.9
002EECB1 2019-04-17 10:06:16 16.5 28 24.3
002EECB1 2019-04-17 09:32:21 16.3 28 24.1
002EECB1 2019-04-17 08:58:26 16.4 27 23.9
002EECB1 2019-04-17 08:24:32 16.5 27 23.8
002EECB1 2019-04-17 07:50:37 16.8 27 23.8
002EECB1 2019-04-17 07:16:44 17 27 23.9
002EECB1 2019-04-17 06:42:49 17.1 27 23.9
002EECB1 2019-04-17 06:08:53 17.2 27 23.9
002EECB1 2019-04-17 05:34:57 17.2 27 23.9
002EECB1 2019-04-17 05:01:02 17.2 27 23.7
002EECB1 2019-04-17 04:27:06 17.4 27 23.6
002EECB1 2019-04-17 03:53:10 17.4 27 23.3
002EECB1 2019-04-17 03:19:15 17.5 27 23.1
002EECB1 2019-04-17 02:45:20 17.6 27 22.9
002EECB1 2019-04-17 02:11:26 17.6 27 22.5
002EECB1 2019-04-17 01:37:31 17.6 26 22.5
002EECB1 2019-04-17 01:03:37 17.7 26 22.3
002EECB1 2019-04-17 00:29:42 17.6 26 22.1
002EECB1 2019-04-16 23:55:48 17.6 26 22.8
002EECB1 2019-04-16 23:21:52 17.4 26 22.6
002EECB1 2019-04-16 22:47:58 17.4 25 22.3
002EECB1 2019-04-16 22:14:05 17.9 25 22.3
002EECB1 2019-04-16 21:40:12 18.1 25 22.4
002EECB1 2019-04-16 21:06:17 18.4 25 21.4
002EECB1 2019-04-16 20:32:24 18.5 25 21.3
002EECB1 2019-04-16 19:58:30 18.7 25 21.3
002EECB1 2019-04-16 19:24:37 18.7 25 21.3
002EECB1 2019-04-16 18:50:43 18.7 25 21.1
002EECB1 2019-04-16 18:16:51 18.7 24 21.3
002EECB1 2019-04-16 17:42:57 18.9 24 21.1
002EECB1 2019-04-16 16:01:21 19.4 24 20.9
002EECB1 2019-04-16 15:27:29 19.6 24 20.5
002EECB1 2019-04-16 14:53:36 19.9 23 20.1
002EECB1 2019-04-16 14:19:43 20.6 23 19.9
002EECB1 2019-04-16 13:45:49 21 24 19.9
002EECB1 2019-04-16 13:11:55 20.9 24 20.1
002EECB1 2019-04-16 12:38:02 20.8 24 20.1
002EECB1 2019-04-16 12:04:09 20.9 24 19.7
002EECB1 2019-04-16 11:30:15 20.9 24 19.8
002EECB1 2019-04-16 10:56:22 20.9 24 19.9
002EECB1 2019-04-16 10:22:29 20.9 24 20
002EECB1 2019-04-16 09:48:35 20.9 24 19.9
002EECB1 2019-04-16 09:14:42 20.8 24 20.1
002EECB1 2019-04-16 08:40:48 20.8 24 18.1
002EECB1 2019-04-16 08:06:56 20.8 24 18
002EECB1 2019-04-16 07:33:02 20.9 24 17.7
002EECB1 2019-04-16 06:59:08 20.8 23 17.7
002EECB1 2019-04-16 06:25:17 20.9 23 17.1
002EECB1 2019-04-16 05:51:23 20.8 23 17
002EECB1 2019-04-16 05:17:30 20.8 23 17
002EECB1 2019-04-16 04:43:37 20.8 23 17.1
002EECB1 2019-04-16 04:09:44 20.8 23 17
002EECB1 2019-04-16 03:35:51 20.8 23 16.9
002EECB1 2019-04-16 03:01:57 20.9 23 16.6
002EECB1 2019-04-16 02:28:05 20.8 23 17.1
002EECB1 2019-04-16 01:54:12 20.9 23 17.5
002EECB1 2019-04-16 01:20:19 20.9 23 18.2
002EECB1 2019-04-16 00:46:28 20.9 23 18.6
002EECB1 2019-04-16 00:12:34 20.9 23 19
002EECB1 2019-04-15 23:38:39 20.9 23 19.7
002EECB1 2019-04-15 23:04:45 20.9 23 19.6
002EECB1 2019-04-15 22:30:51 21 23 19.7
002EECB1 2019-04-15 21:56:57 21 23 19.9
002EECB1 2019-04-15 21:23:04 21 23 20.3
002EECB1 2019-04-15 20:49:10 20.9 23 20.9
002EECB1 2019-04-15 20:15:15 20.9 23 20.9
002EECB1 2019-04-15 19:41:20 20.9 22 21.2
002EECB1 2019-04-15 19:07:26 20.9 22 21.4
002EECB1 2019-04-15 18:33:33 20.9 22 21.7
002EECB1 2019-04-15 17:59:39 21.1 22 22.2
002EECB1 2019-04-15 17:25:47 21.1 22 23.1
002EECB1 2019-04-15 16:51:54 21.1 22 23.4
002EECB1 2019-04-15 16:18:01 21.3 22 23.6
002EECB1 2019-04-15 15:44:09 21.3 22 23.7
002EECB1 2019-04-15 15:10:17 21.3 22 24.1
002EECB1 2019-04-15 14:36:27 21.3 21 24.3
002EECB1 2019-04-15 14:02:33 21.5 21 24.5
002EECB1 2019-04-15 13:28:40 21.7 20 24.7
002EECB1 2019-04-15 12:54:48 21.8 19 24.9
002EECB1 2019-04-15 12:20:56 22.2 19 24.9
002EECB1 2019-04-15 11:47:04 22.4 17 25.1
002EECB1 2019-04-15 11:13:13 22.2 17 25
002EECB1 2019-04-15 10:39:21 22.1 18 25.1
002EECB1 2019-04-15 10:05:29 22.1 18 25.1
002EECB1 2019-04-15 09:31:38 22.2 18 25
002EECB1 2019-04-15 08:57:46 22 18 25.1
002EECB1 2019-04-15 08:23:53 21.9 18 25.2
002EECB1 2019-04-15 07:50:01 21.8 18 25.3
002EECB1 2019-04-15 07:16:08 21.7 18 25.3
002EECB1 2019-04-15 06:42:17 21.8 18 25.2
002EECB1 2019-04-15 06:08:25 21.7 18 25.2
002EECB1 2019-04-15 05:34:33 21.8 18 25.1
002EECB1 2019-04-15 05:00:41 21.7 18 25
002EECB1 2019-04-15 04:26:49 21.7 19 25
002EECB1 2019-04-15 03:52:56 21.7 19 24.8
002EECB1 2019-04-15 03:19:04 21.7 19 24.4
002EECB1 2019-04-15 02:45:11 21.7 19 24.3
002EECB1 2019-04-15 02:11:18 21.7 19 24.2
002EECB1 2019-04-15 01:37:25 21.7 19 24.2
002EECB1 2019-04-15 01:03:34 21.8 19 24.1
002EECB1 2019-04-15 00:29:41 21.8 19 24.1
002EECB1 2019-04-14 23:55:49 21.7 19 24
002EECB1 2019-04-14 23:21:56 21.7 19 23.8
002EECB1 2019-04-14 22:48:04 21.7 19 23.8
002EECB1 2019-04-14 22:14:11 21.7 19 23.7
002EECB1 2019-04-14 21:40:19 21.7 19 23.7
002EECB1 2019-04-14 21:06:26 21.9 19 23.7
002EECB1 2019-04-14 20:32:34 21.9 19 23.5
002EECB1 2019-04-14 19:58:42 21.9 19 23.8
002EECB1 2019-04-14 19:24:50 21.9 19 23.9
002EECB1 2019-04-14 18:50:57 21.9 19 23.9
002EECB1 2019-04-14 18:17:05 21.9 19 23.9
002EECB1 2019-04-14 17:43:12 21.7 19 23.8
002EECB1 2019-04-14 17:09:19 21.7 19 23.7
002EECB1 2019-04-14 16:35:26 21.8 19 23.7
002EECB1 2019-04-14 16:01:33 21.8 19 24.2
002EECB1 2019-04-14 15:27:40 21.9 19 24.5
002EECB1 2019-04-14 14:53:47 21.7 19 24.6
002EECB1 2019-04-14 14:19:53 21.8 19 24.5
002EECB1 2019-04-14 13:46:00 21.9 19 24.5
002EECB1 2019-04-14 13:12:08 21.8 20 24.6
002EECB1 2019-04-14 12:38:17 21.9 20 24.6
002EECB1 2019-04-14 12:04:24 21.9 20 24.5
002EECB1 2019-04-14 11:30:32 21.8 20 24.6
002EECB1 2019-04-14 10:56:40 21.8 20 24.6
002EECB1 2019-04-14 10:22:47 21.8 20 24.5
002EECB1 2019-04-14 09:48:55 21.8 20 25
002EECB1 2019-04-14 09:15:03 21.7 19 25.3
002EECB1 2019-04-14 08:41:10 21.8 19 25.2
002EECB1 2019-04-14 08:07:17 21.8 19 25.2
002EECB1 2019-04-14 07:33:23 21.7 19 25.2
002EECB1 2019-04-14 06:59:30 21.8 19 25.3
002EECB1 2019-04-14 06:25:37 21.8 19 25.3
002EECB1 2019-04-14 05:51:43 21.7 19 25.2
002EECB1 2019-04-14 05:17:51 21.8 19 25.2
002EECB1 2019-04-14 04:43:59 21.8 19 25.2
002EECB1 2019-04-14 04:10:07 21.8 19 25.2
002EECB1 2019-04-14 03:36:14 21.9 19 25.3
002EECB1 2019-04-14 03:02:22 21.9 19 25.5
002EECB1 2019-04-14 02:28:29 21.9 19 25.5
002EECB1 2019-04-14 01:54:38 21.9 19 25
002EECB1 2019-04-14 01:20:48 21.9 19 25.3
002EECB1 2019-04-14 00:46:57 21.9 19 25.4
002EECB1 2019-04-14 00:13:06 21.9 19 25.4
002EECB1 2019-04-13 23:39:13 21.9 19 25.6
002EECB1 2019-04-13 23:05:20 22 19 25.5
002EECB1 2019-04-13 22:31:29 21.9 19 25.5
002EECB1 2019-04-13 21:57:38 22 19 25.7
002EECB1 2019-04-13 21:23:46 21.9 19 25.8
002EECB1 2019-04-13 20:49:55 22.1 19 25.6
002EECB1 2019-04-13 20:16:03 22.1 19 25.7
002EECB1 2019-04-13 19:42:11 22.1 19 25.3
002EECB1 2019-04-13 19:08:20 22.2 19 25.2
002EECB1 2019-04-13 18:34:28 22.2 19 25.2
002EECB1 2019-04-13 18:00:36 22.1 19 25.1
002EECB1 2019-04-13 17:26:44 22.2 19 25
002EECB1 2019-04-13 16:52:52 22.2 19 25.1
002EECB1 2019-04-13 16:18:59 22.2 19 25.1
002EECB1 2019-04-13 15:45:07 22.2 19 25.1
002EECB1 2019-04-13 15:11:15 22.2 19 25.1
002EECB1 2019-04-13 14:37:23 22.2 19 25
002EECB1 2019-04-13 14:03:30 22.3 19 25.4
002EECB1 2019-04-13 13:29:38 22.3 19 25.2
002EECB1 2019-04-13 12:55:44 22.4 19 25.1
002EECB1 2019-04-13 12:21:52 22.3 19 25.5
002EECB1 2019-04-13 11:47:58 22.2 19 25.6
002EECB1 2019-04-13 11:14:05 22.3 19 25.2
002EECB1 2019-04-13 10:40:13 22.3 19 25.3
002EECB1 2019-04-13 10:06:20 22.3 19 25.3
002EECB1 2019-04-13 09:32:29 22.2 19 25.4
002EECB1 2019-04-13 08:58:36 22.3 19 25.5
002EECB1 2019-04-13 08:24:44 22.3 19 25.5
002EECB1 2019-04-13 07:50:53 22.2 19 25.5
002EECB1 2019-04-13 07:17:00 22.2 19 25.4
002EECB1 2019-04-13 06:43:08 22.2 19 25.6
002EECB1 2019-04-13 06:09:16 22.3 19 25.6
002EECB1 2019-04-13 05:35:23 22.3 19 25.5
002EECB1 2019-04-13 05:01:31 22.3 19 25.4
002EECB1 2019-04-13 04:27:40 22.3 19 25.8
002EECB1 2019-04-13 03:53:47 22.4 19 26.2
002EECB1 2019-04-13 03:19:56 22.4 19 26.3
002EECB1 2019-04-13 02:46:04 22.4 19 26.1
002EECB1 2019-04-13 02:12:11 22.4 19 26.2
002EECB1 2019-04-13 01:38:18 22.5 20 26.2
002EECB1 2019-04-13 01:04:25 22.5 20 26.3
002EECB1 2019-04-13 00:30:32 22.6 20 26.4
002EECB1 2019-04-12 23:56:38 22.6 20 26.1
002EECB1 2019-04-12 23:22:47 22.6 20 26.3
002EECB1 2019-04-12 22:48:51 22.6 20 26.3
002EECB1 2019-04-12 22:14:56 22.6 20 26
002EECB1 2019-04-12 21:41:02 22.8 20 26.1
002EECB1 2019-04-12 21:07:08 22.8 20 26.2
002EECB1 2019-04-12 20:33:13 22.8 20 26.1
002EECB1 2019-04-12 19:59:20 22.8 20 26.1
002EECB1 2019-04-12 19:25:25 22.8 20 26
002EECB1 2019-04-12 18:51:32 22.8 19 26
002EECB1 2019-04-12 18:17:38 23 18 26.2
002EECB1 2019-04-12 17:43:43 23 19 26.2
002EECB1 2019-04-12 17:09:50 23 19 26.2
002EECB1 2019-04-12 16:35:55 23 19 26.1
002EECB1 2019-04-12 16:02:02 22.8 19 26.5
002EECB1 2019-04-12 15:28:08 22.8 19 27.1
002EECB1 2019-04-12 14:54:14 22.6 20 27.6
002EECB1 2019-04-12 14:20:21 22.2 21 26.4
002EECB1 2019-04-12 13:46:28 21.8 21 22
002EECB1 2019-04-12 13:12:35 21.1 23 18.2